| time (UTC) | temp F | wind direction | speed knots | gust knots | rain 1hr in | rain 24hr in | rain mn in | humidity % | barometer mb |
| 20260906204552 | 86 | 119 | 1.7 | 11.3 | 0.00 | 0.00 | 0.00 | 40 | 1018.1 |
| 20260906203057 | 85 | 82 | 5.2 | 12.2 | 0.00 | 0.00 | 0.00 | 41 | 1018.3 |
| 20260906201602 | 85 | 98 | 2.6 | 8.7 | 0.00 | 0.00 | 0.00 | 40 | 1018.5 |
| 20260906200054 | 85 | 151 | 5.2 | 11.3 | 0.00 | 0.00 | 0.00 | 41 | 1018.6 |
| 20260906194558 | 85 | 83 | 4.3 | 9.6 | 0.00 | 0.00 | 0.00 | 41 | 1018.7 |
| 20260906193043 | 84 | 150 | 4.3 | 11.3 | 0.00 | 0.00 | 0.00 | 42 | 1018.8 |
| 20260906191607 | 83 | 117 | 4.3 | 9.6 | 0.00 | 0.00 | 0.00 | 43 | 1019.3 |
| 20260906190049 | 83 | 61 | 4.3 | 9.6 | 0.00 | 0.00 | 0.00 | 44 | 1019.4 |
| 20260906184555 | 84 | 132 | 3.5 | 9.6 | 0.00 | 0.00 | 0.00 | 43 | 1019.8 |
| 20260906183058 | 83 | 115 | 1.7 | 8.7 | 0.00 | 0.00 | 0.00 | 44 | 1020.1 |
| 20260906181540 | 82 | 169 | 284.2 | 284.2 | 0.00 | 0.00 | 0.00 | 45 | 1020.3 |
| 20260906180105 | 82 | 126 | 0.9 | 3.5 | 0.00 | 0.00 | 0.00 | 45 | 1020.4 |
| 20260906174549 | 81 | 86 | 284.2 | 284.2 | 0.00 | 0.00 | 0.00 | 46 | 1020.8 |
| 20260906173100 | 80 | 46 | 0.0 | 0.9 | 0.00 | 0.00 | 0.00 | 48 | 1020.8 |
| 20260906171607 | 78 | 92 | 0.0 | 0.9 | 0.00 | 0.00 | 0.00 | 51 | 1021.0 |
| 20260906170050 | 76 | 121 | 0.0 | 5.2 | 0.00 | 0.00 | 0.00 | 54 | 1021.3 |
| 20260906164618 | 75 | 191 | 1.7 | 5.2 | 0.00 | 0.00 | 0.00 | 60 | 1021.3 |
| 20260906163044 | 73 | 177 | 0.9 | 4.3 | 0.00 | 0.00 | 0.00 | 62 | 1021.4 |
| 20260906161551 | 72 | 140 | 2.6 | 4.3 | 0.00 | 0.00 | 0.00 | 65 | 1021.6 |
| 20260906160054 | 73 | 144 | 2.6 | 7.0 | 0.00 | 0.00 | 0.00 | 64 | 1021.6 |
| 20260906154554 | 72 | 153 | 2.6 | 7.8 | 0.00 | 0.00 | 0.00 | 66 | 1021.7 |
| 20260906153042 | 70 | 146 | 4.3 | 8.7 | 0.00 | 0.00 | 0.00 | 69 | 1021.7 |
| 20260906151548 | 70 | 123 | 4.3 | 9.6 | 0.00 | 0.00 | 0.00 | 69 | 1021.6 |
| 20260906150051 | 69 | 192 | 3.5 | 7.8 | 0.00 | 0.00 | 0.00 | 71 | 1021.6 |
| 20260906144619 | 68 | 155 | 2.6 | 7.0 | 0.00 | 0.00 | 0.00 | 72 | 1021.7 |
| 20260906143045 | 67 | 205 | 0.9 | 8.7 | 0.00 | 0.00 | 0.00 | 73 | 1021.6 |
| 20260906141555 | 66 | 192 | 2.6 | 7.0 | 0.00 | 0.00 | 0.00 | 76 | 1021.6 |
| 20260906140046 | 64 | 210 | 0.9 | 6.1 | 0.00 | 0.00 | 0.00 | 78 | 1021.7 |
| 20260906134611 | 63 | 193 | 0.9 | 4.3 | 0.00 | 0.00 | 0.00 | 82 | 1021.6 |
| 20260906133056 | 61 | 206 | 0.0 | 1.7 | 0.00 | 0.00 | 0.00 | 85 | 1021.5 |
| 20260906131542 | 60 | 200 | 0.0 | 1.7 | 0.00 | 0.00 | 0.00 | 86 | 1021.4 |
| 20260906130045 | 60 | 189 | 0.0 | 5.2 | 0.00 | 0.00 | 0.00 | 87 | 1021.5 |
| 20260906124549 | 60 | 188 | 0.9 | 3.5 | 0.00 | 0.00 | 0.00 | 86 | 1021.4 |
| 20260906123052 | 60 | 243 | 0.9 | 5.2 | 0.00 | 0.00 | 0.00 | 86 | 1021.3 |
| 20260906121541 | 61 | 219 | 0.0 | 2.6 | 0.00 | 0.00 | 0.00 | 84 | 1021.2 |
| 20260906120045 | 61 | 172 | 1.7 | 6.1 | 0.00 | 0.00 | 0.00 | 83 | 1021.2 |
| 20260906114547 | 61 | 248 | 0.9 | 4.3 | 0.00 | 0.00 | 0.00 | 83 | 1021.2 |
| 20260906113052 | 62 | 192 | 1.7 | 4.3 | 0.00 | 0.00 | 0.00 | 83 | 1021.1 |
| 20260906111553 | 63 | 179 | 0.9 | 5.2 | 0.00 | 0.00 | 0.00 | 83 | 1021.0 |
| 20260906110059 | 63 | 187 | 2.6 | 4.3 | 0.00 | 0.00 | 0.00 | 82 | 1021.0 |
| 20260906104542 | 63 | 174 | 0.9 | 4.3 | 0.00 | 0.00 | 0.00 | 82 | 1021.3 |
| 20260906103047 | 63 | 169 | 0.9 | 3.5 | 0.00 | 0.00 | 0.00 | 82 | 1021.2 |
| 20260906101549 | 63 | 180 | 1.7 | 7.0 | 0.00 | 0.00 | 0.00 | 81 | 1021.0 |
| 20260906100052 | 63 | 207 | 0.9 | 3.5 | 0.00 | 0.00 | 0.00 | 80 | 1020.9 |
| 20260906094559 | 62 | 248 | 0.0 | 5.2 | 0.00 | 0.00 | 0.00 | 79 | 1020.7 |
| 20260906084554 | 61 | 239 | 0.0 | 0.0 | 0.00 | 0.00 | 0.00 | 77 | 1020.6 |
| 20260906083118 | 61 | 207 | 0.0 | 0.9 | 0.00 | 0.00 | 0.00 | 77 | 1020.7 |
| 20260906081602 | 61 | 198 | 0.0 | 1.7 | 0.00 | 0.00 | 0.00 | 76 | 1021.0 |
| 20260906080046 | 62 | 230 | 0.0 | 1.7 | 0.00 | 0.00 | 0.00 | 75 | 1020.9 |
| 20260906074548 | 62 | 198 | 0.0 | 1.7 | 0.00 | 0.00 | 0.00 | 75 | 1021.0 |
| 20260906073116 | 63 | 232 | 0.0 | 0.0 | 0.00 | 0.00 | 0.00 | 76 | 1021.0 |
| 20260906071559 | 64 | 255 | 0.9 | 2.6 | 0.00 | 0.00 | 0.00 | 77 | 1021.0 |
| 20260906070100 | 64 | 254 | 0.9 | 2.6 | 0.00 | 0.00 | 0.00 | 78 | 1020.8 |
| 20260906064603 | 64 | 254 | 0.0 | 1.7 | 0.00 | 0.00 | 0.00 | 79 | 1020.9 |
| 20260906063109 | 64 | 281 | 0.0 | 1.7 | 0.00 | 0.00 | 0.00 | 80 | 1020.8 |
| 20260906061611 | 63 | 248 | 0.9 | 1.7 | 0.00 | 0.00 | 0.00 | 81 | 1020.9 |
| 20260906060052 | 63 | 57 | 284.2 | 284.2 | 0.00 | 0.00 | 0.00 | 82 | 1020.7 |
| 20260906054606 | 63 | 57 | 0.0 | 0.0 | 0.00 | 0.00 | 0.00 | 81 | 1020.7 |
| 20260906053049 | 64 | 57 | 0.0 | 0.0 | 0.00 | 0.00 | 0.00 | 80 | 1020.8 |
| 20260906051551 | 65 | 57 | 0.0 | 0.0 | 0.00 | 0.00 | 0.00 | 78 | 1020.7 |
| 20260906050115 | 65 | 57 | 0.0 | 3.5 | 0.00 | 0.00 | 0.00 | 78 | 1020.8 |
| 20260906043057 | 66 | 68 | 0.9 | 1.7 | 0.00 | 0.00 | 0.00 | 71 | 1020.7 |
| 20260906041601 | 67 | 71 | 0.9 | 4.3 | 0.00 | 0.00 | 0.00 | 67 | 1020.8 |
| 20260906040046 | 69 | 58 | 1.7 | 8.7 | 0.00 | 0.00 | 0.00 | 61 | 1020.6 |
| 20260906034549 | 71 | 37 | 0.0 | 0.0 | 0.00 | 0.00 | 0.00 | 58 | 1020.6 |
| 20260906033054 | 72 | 350 | 0.0 | 1.7 | 0.00 | 0.00 | 0.00 | 56 | 1020.2 |
| 20260906031621 | 73 | 355 | 0.9 | 1.7 | 0.00 | 0.00 | 0.00 | 51 | 1020.1 |
| 20260906030044 | 74 | 74 | 0.0 | 0.0 | 0.00 | 0.00 | 0.00 | 44 | 1020.0 |
| 20260906024546 | 75 | 74 | 284.2 | 284.2 | 0.00 | 0.00 | 0.00 | 40 | 1019.9 |
| 20260906023053 | 76 | 89 | 6.1 | 8.7 | 0.00 | 0.00 | 0.00 | 38 | 1020.2 |
| 20260906021558 | 77 | 288 | 0.9 | 3.5 | 0.00 | 0.00 | 0.00 | 36 | 1019.5 |
| 20260906020120 | 78 | 275 | 0.9 | 7.0 | 0.00 | 0.00 | 0.00 | 35 | 1019.3 |
| 20260906014543 | 79 | 273 | 0.9 | 3.5 | 0.00 | 0.00 | 0.00 | 34 | 1019.3 |
| 20260906013049 | 80 | 355 | 0.9 | 5.2 | 0.00 | 0.00 | 0.00 | 33 | 1019.0 |
| 20260906011552 | 81 | 328 | 2.6 | 7.8 | 0.00 | 0.00 | 0.00 | 31 | 1019.1 |
| 20260906010117 | 83 | 266 | 2.6 | 7.8 | 0.00 | 0.00 | 0.00 | 30 | 1019.4 |
| 20260906004559 | 85 | 338 | 0.0 | 0.9 | 0.00 | 0.00 | 0.00 | 29 | 1019.4 |
| 20260906003103 | 86 | 355 | 0.0 | 1.7 | 0.00 | 0.00 | 0.00 | 29 | 1019.2 |
| 20260906001545 | 87 | 327 | 0.0 | 2.6 | 0.00 | 0.00 | 0.00 | 28 | 1019.3 |
| 20260906000051 | 87 | 310 | 0.0 | 4.3 | 0.00 | 0.00 | 0.00 | 27 | 1019.3 |
| 20260905234557 | 89 | 11 | 0.0 | 3.5 | 0.00 | 0.00 | 0.00 | 26 | 1019.3 |
| 20260905233059 | 88 | 34 | 0.0 | 0.0 | 0.00 | 0.00 | 0.00 | 26 | 1019.1 |
| 20260905231605 | 88 | 73 | 0.0 | 5.2 | 0.00 | 0.00 | 0.00 | 27 | 1019.2 |
| 20260905230052 | 88 | 57 | 0.0 | 1.7 | 0.00 | 0.00 | 0.00 | 27 | 1019.1 |
| 20260905224555 | 86 | 351 | 0.0 | 2.6 | 0.00 | 0.00 | 0.00 | 28 | 1019.0 |
| 20260905223057 | 86 | 11 | 0.9 | 3.5 | 0.00 | 0.00 | 0.00 | 28 | 1018.9 |
| 20260905221602 | 86 | 78 | 0.0 | 5.2 | 0.00 | 0.00 | 0.00 | 26 | 1019.2 |
| 20260905220043 | 87 | 22 | 0.0 | 8.7 | 0.00 | 0.00 | 0.00 | 27 | 1019.1 |
| 20260905214546 | 86 | 65 | 2.6 | 7.0 | 0.00 | 0.00 | 0.00 | 27 | 1019.3 |
| 20260905213114 | 86 | 69 | 7.8 | 13.9 | 0.00 | 0.00 | 0.00 | 26 | 1019.5 |